カタログに戻る

THORAD AGENA D DEB

運用中PO
NORAD 42523·DEBRIS·🇺🇸 United States

打ち上げ Apr 8, 1970 から Vandenberg Space Force Base

Loading…

次のパス (今後24時間)

TLE

経年Source: Space-Track

元期: Sep 7, 2026, 20:10 UTC

1 42523U 70025SD  26250.84092531  .00000323  00000-0  37801-3 0  9997
2 42523  99.9861  14.6517 0026171  51.3557 100.4416 13.76562504641711

AllMySatでTHORAD AGENA D DEBをリアルタイム追跡

Download on the App Store